Fitchburg, MA

10:17 AM EDT on July 20, 2019 (GMT -0400)
Fitchburg Municipal

Weather History for KFIT - May, 2019

Change the Weather History Date:

Wednesday, May 8, 2019

  Actual Average (KORH) Record (KORH)
Temperature  
Mean Temperature 56 °F -  
Max Temperature 66 °F 61 °F 90 °F (1936)
Min Temperature 45 °F 41 °F 28 °F (1956)
Degree Days  
Heating Degree Days 9    
Growing Degree Days 6 (Base 50)    
Moisture  
Dew Point 41 °F    
Average Humidity 70    
Maximum Humidity 97    
Minimum Humidity 15    
Precipitation  
Precipitation 0.00 in - - ()
Sea Level Pressure  
Sea Level Pressure 30.21 in    
Wind  
Wind Speed 3 mph (NNW)    
Max Wind Speed 17 mph    
Max Gust Speed 25 mph    
Visibility 6 miles    
Events Fog    
Averages and records for this station are not official NWS values.
T = Trace of Precipitation, MM = Missing Value Source: NWS Daily Summary

Daily Weather History Graph

Daily Weather History Graph

Search for Another Location

Airport or City:

Astronomy

May. 08, 2019 Rise Set
Actual Time 5:33 AM EDT 7:54 PM EDT
Civil Twilight 5:01 AM EDT 8:26 PM EDT
Nautical Twilight 4:22 AM EDT 9:05 PM EDT
Astronomical Twilight 3:39 AM EDT 9:49 PM EDT
Moon 8:25 AM EDT (5/8) 11:54 PM EDT (5/8)
Length of Visible Light 15h 24m
Length of Day
14h 21m
Waxing Crescent, 15% of the Moon is Illuminated
May 8
Waxing Crescent
May 11
First Quarter
May 18
Full
May 26
Last Quarter
Jun 3
New

Hourly Weather History & Observations

Time (EDT) Temp. Windchill Dew Point Humidity Pressure Visibility Wind Dir Wind Speed Gust Speed Precip Events Conditions
12:22 AM 54.0 °F - 52.0 °F 93% 30.16 in 1.8 mi Calm Calm - N/A   Scattered Clouds
12:26 AM 54.0 °F - 52.0 °F 93% 30.16 in 1.0 mi Calm Calm - N/A   Scattered Clouds
12:33 AM 53.1 °F - 51.1 °F 93% 30.16 in 0.5 mi NW 3.5 mph - N/A Fog Fog
12:49 AM 53.6 °F - 51.8 °F 94% 30.16 in 1.2 mi North 3.5 mph - N/A   Scattered Clouds
12:52 AM 54.0 °F - 52.0 °F 93% 30.16 in 5.0 mi Calm Calm - N/A   Partly Cloudy
1:05 AM 52.0 °F - 51.1 °F 97% 30.17 in 1.0 mi Calm Calm - N/A   Mist
1:12 AM 52.0 °F - 50.0 °F 93% 30.16 in 0.2 mi Calm Calm - N/A Fog Fog
1:29 AM 52.0 °F - 51.1 °F 97% 30.17 in 1.2 mi NNW 4.6 mph - N/A   Scattered Clouds
1:33 AM 52.0 °F - 51.1 °F 97% 30.17 in 3.0 mi NNW 4.6 mph - N/A   Mostly Cloudy
1:52 AM 52.0 °F - 50.0 °F 93% 30.17 in 3.0 mi Calm Calm - N/A   Scattered Clouds
1:54 AM 51.1 °F - 50.0 °F 96% 30.17 in 1.5 mi Calm Calm - N/A   Mostly Cloudy
1:56 AM 51.1 °F - 50.0 °F 96% 30.17 in 0.8 mi Calm Calm - N/A   Mostly Cloudy
2:18 AM 51.1 °F - 50.0 °F 96% 30.17 in 1.2 mi Calm Calm - N/A   Overcast
2:21 AM 51.1 °F - 50.0 °F 96% 30.17 in 3.0 mi Calm Calm - N/A   Overcast
2:52 AM 51.1 °F - 50.0 °F 96% 30.17 in 10.0 mi NNW 4.6 mph - N/A   Overcast
3:52 AM 48.9 °F - 46.9 °F 93% 30.17 in 10.0 mi Calm Calm - N/A   Clear
4:02 AM 46.9 °F - 45.0 °F 93% 30.17 in 1.8 mi NNW 3.5 mph - N/A   Clear
4:13 AM 46.9 °F - 46.0 °F 97% 30.17 in 3.0 mi NW 3.5 mph - N/A   Clear
4:41 AM 46.0 °F 44.8 °F 44.1 °F 93% 30.18 in 1.2 mi NW 3.5 mph - N/A   Partly Cloudy
4:48 AM 46.4 °F 45.2 °F 44.6 °F 93% 30.18 in 1.0 mi NNW 3.5 mph - N/A   Mist
4:50 AM 46.4 °F 45.2 °F 44.6 °F 93% 30.18 in 1.2 mi NNW 3.5 mph - N/A   Clear
4:52 AM 46.9 °F - 45.0 °F 93% 30.18 in 2.5 mi North 3.5 mph - N/A   Clear
4:59 AM 46.9 °F - 46.0 °F 97% 30.18 in 8.0 mi NNW 3.5 mph - N/A   Clear
5:52 AM 46.0 °F 44.8 °F 45.0 °F 96% 30.21 in 10.0 mi North 3.5 mph - N/A   Clear
6:52 AM 51.1 °F - 45.0 °F 80% 30.24 in 10.0 mi NW 5.8 mph - N/A   Clear
7:52 AM 54.0 °F - 41.0 °F 62% 30.25 in 10.0 mi NNW 8.1 mph - N/A   Clear
8:52 AM 55.9 °F - 39.0 °F 53% 30.26 in 10.0 mi NNE 6.9 mph - N/A   Clear
9:52 AM 59.0 °F - 39.0 °F 48% 30.26 in 10.0 mi NNE 4.6 mph - N/A   Clear
10:52 AM 62.1 °F - 41.0 °F 46% 30.25 in 10.0 mi WNW 3.5 mph - N/A   Clear
11:52 AM 64.0 °F - 39.0 °F 40% 30.23 in 10.0 mi West 9.2 mph 18.4 mph N/A   Partly Cloudy
12:52 PM 64.9 °F - 34.0 °F 32% 30.23 in 10.0 mi WNW 17.3 mph 25.3 mph N/A   Clear
1:52 PM 66.0 °F - 33.1 °F 29% 30.21 in 10.0 mi WNW 13.8 mph 23.0 mph N/A   Clear
2:52 PM 66.0 °F - 30.9 °F 27% 30.20 in 10.0 mi NW 17.3 mph 21.9 mph N/A   Clear
3:52 PM 66.9 °F - 21.9 °F 18% 30.20 in 10.0 mi NW 15.0 mph 24.2 mph N/A   Clear
4:52 PM 66.0 °F - 17.1 °F 15% 30.21 in 10.0 mi NNW 12.7 mph 24.2 mph N/A   Clear
5:52 PM 64.9 °F - 21.0 °F 19% 30.22 in 10.0 mi NW 12.7 mph 20.7 mph N/A   Clear
6:52 PM 62.1 °F - 25.0 °F 24% 30.24 in 10.0 mi NW 12.7 mph - N/A   Clear
7:52 PM 57.9 °F - 19.0 °F 22% 30.26 in 10.0 mi North 11.5 mph - N/A   Clear
8:52 PM 54.0 °F - 19.9 °F 26% 30.29 in 10.0 mi North 5.8 mph - N/A   Clear
9:52 PM 48.9 °F - 24.1 °F 38% 30.31 in 10.0 mi NNW 5.8 mph - N/A   Clear
10:52 PM 46.9 °F - 23.0 °F 39% 30.33 in 10.0 mi NNW 3.5 mph - N/A   Clear
11:52 PM 45.0 °F - 27.0 °F 49% 30.35 in 10.0 mi Calm Calm - N/A   Clear